Regional Weather Roundup
Issued by NWS Newport/Morehead, NC

Home | Current Version | Previous Version | Text Only | Print | Product List | Glossary On
Versions: 1 2 3 4 5 6 7 8 9 10 11 12 13 14 15 16 17 18 19 20 21 22 23 24 25 26 27 28 29 30 31 32 33 34 35 36 37 38 39 40 41 42 43 44 45 46 47 48 49 50
000
ASUS42 KMHX 221322
RWRMHX
WEATHER ROUNDUP FOR EASTERN NORTH CAROLINA
NATIONAL WEATHER SERVICE NEWPORT/MOREHEAD CITY NC
900 AM EDT TUE JUL 22 2014

NOTE: "FAIR" INDICATES FEW OR NO CLOUDS BELOW 12,000 FEET
WITH NO SIGNIFICANT WEATHER AND/OR OBSTRUCTIONS TO VISIBILITY

NCZ015>017-031-032-045>047-102-103-221400-
NORTH COAST

CITY           SKY/WX    TMP DP  RH WIND       PRES   REMARKS
EDENTON        PTSUNNY   77  74  90 E6        30.16F
ELIZABETH CITY PTSUNNY   78  72  81 E10       30.17S
KITTY HAWK     PTSUNNY   78  75  90 E6        30.14F
MANTEO         NOT AVBL

$$

NCZ045>047-081-094-103-104-221400-
CENTRAL COAST

CITY           SKY/WX    TMP DP  RH WIND       PRES   REMARKS
FRISCO         PTSUNNY   78  75  90 SE9       30.14F
SWANQUARTER      N/A     79 N/A N/A E3        30.12R

$$

NCZ095-097-098-100-101-221400-
SOUTHERN COAST

CITY           SKY/WX    TMP DP  RH WIND       PRES   REMARKS
BEAUFORT       MOSUNNY   80  75  84 SE3       30.12S
CEDAR ISLAND     N/A     82 N/A N/A E12       30.18S
JACKSONVILLE   PTSUNNY   77  74  90 N7        30.13R
NEWPORT        NOT AVBL
PINEY ISLAND   MOSUNNY   79  76  90 S5        30.13R
WILMINGTON     PTSUNNY   77  74  90 E5        30.11S


$$

NCZ011>013-027>030-043-044-078>080-089-090>093-098-221400-
COASTAL PLAIN

CITY           SKY/WX    TMP DP  RH WIND       PRES   REMARKS
AHOSKIE        PTSUNNY   74  69  83 CALM      30.17F
CLINTON        CLOUDY    76  74  93 NE5       30.14F
ELIZABETHTOWN  CLOUDY    75  75 100 CALM      30.13F
GOLDSBORO      CLOUDY    75  75 100 NE6       30.13F
GREENVILLE     CLOUDY    77  73  88 NE6       30.17S
HAVELOCK       PTSUNNY   82  75  79 CALM      30.14S
KENANSVILLE    CLOUDY    73  72  96 CALM      30.15S FOG
KINSTON        CLOUDY    75  73  94 NE5       30.16S HAZE
NEW BERN       CLOUDY    78  75  90 NE5       30.15S
RICHLANDS      CLOUDY    73  72  94 NE6       30.14S
ROANOKE RAPIDS NOT AVBL
ROCKY MOUNT    CLOUDY    75  71  87 E5        30.17S
WASHINGTON     PTSUNNY   75  73  92 NE5       30.16S
WHITEVILLE     CLOUDY    75  74  97 NE5       30.13R

$$

AMZ130-135-150-152-154-156-158-170-250-252-270-ANZ085-086-088-633-658-670-221400-
MARINE OBSERVATIONS

STATION/POSITION TIME  TEMP    WIND        PRES    WAVE   SWELL
                       AIR SEA DIR/SP/G            HT/PER HT/PER
                 (UTC) (F)     (DEG/KT/KT) (MB)    (FT/S) (FT/S)
CHESAPEAKE LIGHT NOT AVBL
BUOY 44014       1300   76 77   60/ 10/ 10 1021.5    3/ 8   3/ 8
DUCK             1300   76 74   50/  9/ 10 1020.8
2E DUCK          1300                        N/A     2/11
OREGON INLET     1300   77 76   80/  4/  6 1021.0
BUOY 44095       1300      77                N/A     3/ 8
20E OREGON INLET 1200          100/  8/ 10   N/A
HATTERAS CG      1300   76 80  110/  8/ 10 1021.0
DIAMOND BUOY     1300          VRB 12/ 16  1020.4    3/ 8   2/ 8
CAPE LOOKOUT     1300   76     130/  6/  6 1020.1
BEAUFORT LAB     1300   78 80  170/  5/  5 1019.7
30 SE NEW RIVER  1300   78 80  360/  6/  8 1020.6    3/ 8   3/ 8
5 SE WRIGHTSVILL 1300   74 80   80/  6/  8   N/A
BUOY 41002       1154   81 82  190/ 12/ 14 1021.8    4/ 7   2/ 7
BUOY 41004       1300   81 82  180/  8/ 14 1018.4    3/ 7   3/ 7

$$


USA.gov is the U.S. government's official web portal to all federal, state and local government web resources and services.